Weather History for PAEN - November, 2011

Change the Weather History Date:

Tuesday, November 1, 2011

  Actual Average (WUND) Record (WUND)
Temperature  
Mean Temperature 28 °F -  
Max Temperature 35 °F - - (-1)
Min Temperature 21 °F - - (-1)
Degree Days  
Heating Degree Days 37    
Moisture  
Dew Point 14 °F    
Average Humidity 60    
Maximum Humidity 92    
Minimum Humidity 32    
Precipitation  
Precipitation 0.00 in - - ()
Sea Level Pressure  
Sea Level Pressure 29.41 in    
Wind  
Wind Speed 12 mph (North)    
Max Wind Speed 41 mph    
Max Gust Speed 62 mph    
Visibility 10 miles    
Events      
Averages and records for this station are not official NWS values.
T = Trace of Precipitation, MM = Missing Value Source: NWS Daily Summary

Daily Weather History Graph

Daily Weather History Graph

Search for Another Location

Airport or City:

Trip Planner

Search our weather history database for the weather conditions in past years. The results will help you decide how hot, cold, wet, or windy it might be!

Date:

Astronomy

Nov. 01, 2011 Rise Set
Actual Time 9:29 AM AKDT 6:06 PM AKDT
Civil Twilight 8:43 AM AKDT 6:52 PM AKDT
Nautical Twilight 7:53 AM AKDT 7:42 PM AKDT
Astronomical Twilight 7:04 AM AKDT 8:31 PM AKDT
Moon 3:37 PM AKDT (11/1) 11:50 PM AKDT (11/1)
Length of Visible Light 10h 08m
Length of Day
8h 36m
Waxing Crescent, 41% of the Moon is Illuminated
Nov 1
Waxing Crescent
Nov 2
First Quarter
Nov 10
Full
Nov 18
Last Quarter
Nov 24
New

Hourly Weather History & Observations

Time (AKDT) Temp. Windchill Dew Point Humidity Pressure Visibility Wind Dir Wind Speed Gust Speed Precip Events Conditions
12:18 AM 24.8 °F 20.5 °F 21.2 °F 86% 29.58 in 10.0 mi NNE 3.5 mph - N/A   Overcast
12:53 AM 24.1 °F 18.2 °F 21.0 °F 88% 29.57 in 10.0 mi NNE 4.6 mph - N/A   Overcast
1:00 AM 24.8 °F 20.5 °F 21.2 °F 86% 29.56 in 10.0 mi NNE 3.5 mph - N/A   Overcast
1:53 AM 24.1 °F - 21.0 °F 88% 29.55 in 10.0 mi Calm Calm - N/A   Overcast
2:53 AM 25.0 °F - 21.9 °F 88% 29.52 in 10.0 mi Calm Calm - N/A   Overcast
3:00 AM 24.8 °F - 21.2 °F 86% 29.51 in 10.0 mi Calm Calm - N/A   Overcast
3:53 AM 24.1 °F - 21.0 °F 88% 29.49 in 10.0 mi Calm Calm - N/A   Overcast
4:53 AM 24.8 °F - 21.2 °F 86% 29.45 in 10.0 mi Calm Calm - N/A   Overcast
5:53 AM 24.1 °F - 21.9 °F 91% 29.43 in 10.0 mi Calm Calm - N/A   Overcast
6:53 AM 21.9 °F - 19.9 °F 92% 29.40 in 10.0 mi Calm Calm - N/A   Overcast
7:53 AM 21.0 °F - 19.0 °F 92% 29.37 in 10.0 mi Calm Calm - N/A   Scattered Clouds
8:53 AM 21.9 °F - 19.0 °F 89% 29.34 in 10.0 mi Calm Calm - N/A   Overcast
9:53 AM 21.9 °F - 18.0 °F 85% 29.32 in 10.0 mi Calm Calm - N/A   Mostly Cloudy
10:53 AM 30.2 °F 18.1 °F 12.2 °F 47% 29.28 in 10.0 mi North 18.4 mph 34.5 mph N/A   Overcast
11:53 AM 33.1 °F 19.3 °F 10.9 °F 40% 29.27 in 7.0 mi North 28.8 mph 40.3 mph N/A   Overcast
12:53 PM 33.1 °F 19.6 °F 12.0 °F 42% 29.26 in 10.0 mi North 27.6 mph 47.2 mph 0.00 in   Overcast
1:37 PM 33.8 °F 19.4 °F 10.4 °F 38% 29.24 in 10.0 mi North 33.4 mph 47.2 mph 0.00 in   Overcast
1:53 PM 34.0 °F 19.9 °F 10.9 °F 38% 29.24 in 10.0 mi North 32.2 mph 44.9 mph 0.00 in   Overcast
2:53 PM 35.1 °F 20.6 °F 9.0 °F 34% 29.23 in 7.0 mi North 36.8 mph 46.0 mph N/A   Overcast
3:53 PM 34.0 °F 19.9 °F 10.0 °F 37% 29.24 in 10.0 mi North 32.2 mph 54.1 mph N/A   Overcast
4:53 PM 34.0 °F 18.7 °F 9.0 °F 35% 29.26 in 10.0 mi North 39.1 mph 51.8 mph N/A   Scattered Clouds
5:53 PM 34.0 °F 18.4 °F 8.1 °F 34% 29.29 in 10.0 mi North 41.4 mph 57.5 mph N/A   Clear
6:53 PM 33.1 °F 17.5 °F 8.1 °F 35% 29.34 in 10.0 mi North 39.1 mph 62.1 mph N/A   Clear
7:53 PM 32.0 °F 15.8 °F 7.0 °F 35% 29.42 in 10.0 mi North 40.3 mph 51.8 mph N/A   Clear
8:53 PM 32.0 °F 15.8 °F 6.1 °F 34% 29.48 in 10.0 mi North 40.3 mph 58.7 mph N/A   Clear
9:53 PM 32.0 °F 16.2 °F 6.1 °F 34% 29.55 in 10.0 mi North 38.0 mph 50.6 mph N/A   Clear
10:53 PM 30.9 °F 14.3 °F 3.9 °F 32% 29.61 in 10.0 mi North 40.3 mph 56.4 mph N/A   Clear
11:53 PM 30.9 °F 15.7 °F 3.9 °F 32% 29.68 in 10.0 mi North 32.2 mph 47.2 mph N/A   Clear